Regional Weather Roundup
Issued by NWS

Home | Current Version | Previous Version | Graphics & Text | Print | Product List | Glossary On
Versions: 1 2 3 4 5 6 7 8 9 10 11 12 13 14 15 16 17 18 19 20 21 22 23 24 25 26 27 28 29 30 31 32 33 34 35 36 37 38 39 40 41 42 43 44 45 46 47 48 49 50
000
ASUS45 KBOU 221710
RWRCO

WEATHER ROUNDUP FOR COLORADO
NATIONAL WEATHER SERVICE PUEBLO CO
1100 AM MDT SUN APR 22 2018

NOTE: "FAIR" INDICATES FEW OR NO CLOUDS BELOW 12000 FEET WITH NO
SIGNIFICANT WEATHER AND/OR OBSTRUCTIONS TO VISIBILITY.

COZ001>005-013-030-031-221800-
...NORTHWEST COLORADO...

CITY           SKY/WX    TMP DP  RH WIND       PRES   REMARKS
CRAIG          SUNNY     56  36  47 NE3       30.22F
HAYDEN         SUNNY     51  32  48 CALM      30.25F
MEEKER         SUNNY     52  36  54 CALM      30.22F
RABBIT EARS PA NOT AVBL
STEAMBOAT SPGS FAIR      48  35  61 CALM      30.24F
WALDEN         FAIR      50  32  50 S3        30.28F
$$

COZ006>008-011-221800-
...WEST CENTRAL VALLEYS...

CITY           SKY/WX    TMP DP  RH WIND       PRES   REMARKS
GRAND JUNCTION SUNNY     59  36  42 VRB5      30.19F
MONTROSE       SUNNY     55  31  39 CALM      30.22F
EAGLE          SUNNY     46  34  62 CALM      30.29F
RIFLE          SUNNY     53  39  59 CALM      30.23F
DELTA          NOT AVBL
NUCLA          NOT AVBL
$$

COZ017>023-064>068-221800-
...SOUTHWEST COLORADO...

CITY           SKY/WX    TMP DP  RH WIND       PRES   REMARKS
DURANGO        SUNNY     59  19  21 CALM      30.20F
CORTEZ         MOSUNNY   63  22  20 S15       30.17S
PAGOSA SPRINGS FAIR      56  19  22 W3        30.22F
TELLURIDE      SUNNY     50  22  34 CALM      30.30F
WOLF CREEK PAS SUNNY     37  14  38 N5        30.44S
$$

COZ009-010-012-014-032>034-037-058>063-221800-
...CENTRAL COLORADO...

CITY           SKY/WX    TMP DP  RH WIND       PRES   REMARKS
ASPEN          SUNNY     49  32  52 CALM      30.26F
BUENA VISTA    FAIR      53  26  35 SW3       30.24F
COPPER MTN     NOT AVBL
BERTHOUD PASS  CLOUDY    27  16  63 NW18      30.38S WCI  13
COTTONWOOD PAS SUNNY     52  28  40 CALM      30.32S
GUNNISON       SUNNY     45  29  53 CALM      30.29F
KREMMLING      SUNNY     50  36  57 CALM      30.30F
LEADVILLE      SUNNY     43  26  51 N8        30.31S
MONARCH PASS   SUNNY     32  27  80 SW3       30.49F
SALIDA         FAIR      54  28  36 CALM      30.31F
SUNLIGHT       SUNNY     36  28  75 CALM      30.40S
WILKERSON PASS SUNNY     37  23  56 NE7G17    30.39S
$$

COZ069>075-221800-
...SAN LUIS VALLEY/SANGRE DE CRISTO MOUNTAINS...

CITY           SKY/WX    TMP DP  RH WIND       PRES   REMARKS
ALAMOSA        SUNNY     51  26  37 N7        30.26F
DEL NORTE      FAIR      51  26  36 E8        30.27F
LA VETA PASS   SUNNY     45  23  42 N10       30.44R
SAGUACHE       NOT AVBL
$$

COZ035-036-038>040-221800-
...NORTHERN COLORADO FRONT RANGE...

CITY           SKY/WX    TMP DP  RH WIND       PRES   REMARKS
DENVER INTL AP MOSUNNY   52  38  58 VRB5      30.18S
DMNS CITY PARK NOT AVBL
AURORA         MOSUNNY   53  41  62 W5        30.19S
FRONT RANGE AP MOSUNNY   54  41  62 NW3       30.19
ERIE MUNI ARPT FAIR      50  40  67 CALM      30.24S
BOULDER MUN AP FAIR      52  39  62 CALM      30.18S
CENTENNIAL     MOSUNNY   54  38  54 N7        30.19S
BROOMFIELD     MOSUNNY   50  39  66 CALM      30.20R
LOVELAND       SUNNY     47  40  76 VRB5      30.20S
LONGMONT       FAIR      54  40  59 E3        30.20F
$$

COZ041-046-047-076>085-087-088-221800-
...PIKES PEAK/PALMER DIVIDE AND SOUTHERN FOOTHILLS...

CITY           SKY/WX    TMP DP  RH WIND       PRES   REMARKS
COLO. SPRINGS  MOSUNNY   50  39  66 VRB6      30.20S
A. F. ACADEMY  SUNNY     57  30  35 N16       30.19S
SCHRIEVER AFB  NOT AVBL
CHEYENNE MTN   NOT AVBL
ELLICOTT         N/A    N/A N/A N/A NW6       30.18F
FALCON         FAIR      57  29  34 NW10G17   30.22S
FORT CARSON    SUNNY     48  40  73 E5        30.18F
LIMON          SUNNY     48  38  68 VRB5      30.20S
MONUMENT HILL  SUNNY     52  32  46 NW13      30.23S
CANON CITY     FAIR      52  41  66 SE12G20   30.18S
WALSENBURG     FAIR      64  32  29 NE10      30.18F
TRINIDAD       SUNNY     61  31  32 NW10      30.18F
$$

COZ042>045-048>051-090-091-221800-
...NORTHEAST COLORADO...

CITY           SKY/WX    TMP DP  RH WIND       PRES   REMARKS
GREELEY ARPT   SUNNY     48  39  71 CALM      30.21S
AKRON          MOSUNNY   47  38  71 VRB3      30.20R
BURLINGTON     CLOUDY    48  37  65 VRB3      30.21S
WRAY           CLOUDY    50  37  62 E8        30.23S
YUMA           NOT AVBL
STERLING       NOT AVBL
HOLYOKE        CLOUDY    52  36  54 E3        30.21F
FORT MORGAN    FAIR      51  34  52 SE5       30.20S
$$

COZ086-089-092>099-221800-
...SOUTHEAST COLORADO...

CITY           SKY/WX    TMP DP  RH WIND       PRES   REMARKS
PUEBLO         SUNNY     50  38  63 MISG      30.19F
LA JUNTA       CLOUDY    46  40  79 E5        30.21S
LAMAR          CLOUDY    48  37  65 NE5       30.21S
SPRINGFIELD      N/A     47  36  65 VRB7      30.20F
$$




USA.gov is the U.S. government's official web portal to all federal, state and local government web resources and services.